Regional Weather Roundup
Issued by NWS

Home | Current Version | Previous Version | Text Only | Print | Product List | Glossary On
Versions: 1 2 3 4 5 6 7 8 9 10 11 12 13 14 15 16 17 18 19 20 21 22 23 24 25 26 27 28 29 30 31 32 33 34 35 36 37 38 39 40 41 42 43 44 45 46 47 48 49 50
000
ASUS43 KOAX 040010
RWRNE

WEATHER ROUNDUP FOR NEBRASKA
NATIONAL WEATHER SERVICE OMAHA NE
600 PM CST SAT DEC 03 2016

NOTES: SATELLITE DATA IS BEING USED TO AUGMENT CLOUD COVER ABOVE
       12000 FEET.
       "FAIR" INDICATES FEW OR NO CLOUDS BELOW 12,000 FEET WITH NO
       SIGNIFICANT WEATHER AND/OR OBSTRUCTIONS TO VISIBILITY.

  * THESE STATIONS DO NOT REPORT WEATHER SUCH AS RAIN...SNOW OR FOG.

NEZ001>004-019>022-054>056-040100-
NEBRASKA PANHANDLE

CITY           SKY/WX    TMP DP  RH WIND       PRES   REMARKS
SCOTTSBLUFF    CLOUDY    37  13  37 W14       29.98R WCI  28
6HR MIN TEMP:  37; 6HR MAX TEMP:  45;

ALLIANCE       CLOUDY    37  20  50 N12       29.95R WCI  29
6HR MIN TEMP:  37; 6HR MAX TEMP:  44;

CHADRON        CLOUDY    33  15  47 SW6       29.95S WCI  28
6HR MIN TEMP:  32; 6HR MAX TEMP:  43;

KIMBALL        CLOUDY    34  17  50 NW14      29.98R WCI  25
SIDNEY         CLEAR     32  13  45 W12       29.97R WCI  23
6HR MIN TEMP:  32; 6HR MAX TEMP:  46;

$$

NEZ057>060-069>072-079>082-040100-
SOUTHWEST NEBRASKA

CITY           SKY/WX    TMP DP  RH WIND       PRES   REMARKS
NORTH PLATTE   MOCLDY    37  30  75 S10       29.97R WCI  30
6HR MIN TEMP:  37; 6HR MAX TEMP:  47;

IMPERIAL       CLOUDY    39  26  59 S7        29.97R WCI  34
6HR MIN TEMP:  39; 6HR MAX TEMP:  46;

LEXINGTON      CLOUDY    33  31  91 S9        30.04R WCI  26
MCCOOK         CLOUDY    35  31  85 SE7       30.02R WCI  29
6HR MIN TEMP:  35; 6HR MAX TEMP:  39;

OGALLALA       PTCLDY    37  13  38 CALM      29.97R
$$

NEZ005>010-023>029-035>040-094-040100-
NORTH CENTRAL NEBRASKA

CITY           SKY/WX    TMP DP  RH WIND       PRES   REMARKS
VALENTINE      CLEAR     31  16  54 W6        29.93R WCI  25
6HR MIN TEMP:  31; 6HR MAX TEMP:  47;

AINSWORTH      PTCLDY    36  16  45 W15       29.92R WCI  26
BROKEN BOW     CLOUDY    35  32  88 S15G24    30.00S WCI  25
6HR MIN TEMP:  35; 6HR MAX TEMP:  42;

O`NEILL        CLOUDY    37  32  82 S16G23    29.99F WCI  27
ORD            CLOUDY    34  29  82 S10       30.01F WCI  26
6HR MIN TEMP:  35; 6HR MAX TEMP:  38;

THEDFORD       PTCLDY    40  15  35 SW7       29.95R WCI  35
$$

NEZ041-046>049-061>064-073>077-083>087-040100-
SOUTH CENTRAL NEBRASKA

CITY           SKY/WX    TMP DP  RH WIND       PRES   REMARKS
GRAND ISLAND   CLOUDY    32  32 100 S7        30.08S FOG     WCI  26
6HR MIN TEMP:  32; 6HR MAX TEMP:  33; 6HR PCP:  0.06;

AURORA         LGT SNOW  32  32 100 SE5       30.07F WCI  27
HASTINGS       LGT SNOW  32  31  96 SE9       30.07F FOG     WCI  24
6HR MIN TEMP:  32; 6HR MAX TEMP:  33; 6HR PCP:  0.05;

HEBRON         LGT SNOW  32  32  99 CALM      30.09S
HOLDREGE       CLOUDY    32  31  96 S8        30.04F WCI  25
KEARNEY *      CLOUDY    32  28  86 S8        30.05F WCI  25
YORK           CLOUDY    32  32 100 CALM      30.08F
$$

NEZ011>018-030>034-042>045-040100-
NORTHEAST NEBRASKA

CITY           SKY/WX    TMP DP  RH WIND       PRES   REMARKS
NORFOLK        CLOUDY    33  31  92 S10       30.08F WCI  25
6HR MIN TEMP:  33; 6HR MAX TEMP:  34; 6HR PCP:  0.02;

ALBION         CLOUDY    33  32  96 S12       30.07F WCI  24
BLAIR          LGT SNOW  33  32  97 SE7       30.13S WCI  27
FREMONT        LGT SNOW  32  32 100 SE7       30.13F WCI  26
TEKAMAH        LGT SNOW  33  31  92 SE10      30.14F FOG     WCI  25
6HR MIN TEMP:  32; 6HR MAX TEMP:  34; 6HR PCP:  0.06;

WAYNE          CLOUDY    33  32  98 S10       30.09F WCI  25
$$

NEZ050>053-065>068-078-088>093-040100-
SOUTHEAST NEBRASKA

CITY           SKY/WX    TMP DP  RH WIND       PRES   REMARKS
LINCOLN        LGT SNOW  33  32  96 E5        30.13F VSB 1   WCI  29
6HR MIN TEMP:  33; 6HR MAX TEMP:  33; 6HR PCP:  0.29;

OMAHA EPPLEY   LGT SNOW  34  30  85 SE6       30.15F VSB 1   WCI  29
6HR MIN TEMP:  33; 6HR MAX TEMP:  35; 6HR PCP:  0.18;

BEATRICE       LGT SNOW  33  33 100 E6        30.11F WCI  27
FALLS CITY     LGT RAIN  39  34  82 SE3       30.14R
6HR MIN TEMP:  37; 6HR MAX TEMP:  39; 6HR PCP: TRACE;

NEBRASKA CITY  LGT SNOW  32  32  99 CALM      30.14S
PLATTSMOUTH    LGT SNOW  33  31  94 E5        30.14S WCI  28
$$

NEZ044-045-051>053-067-040100-
OMAHA AREA

CITY           SKY/WX    TMP DP  RH WIND       PRES   REMARKS
OMAHA EPPLEY   LGT SNOW  34  30  85 SE6       30.15F VSB 1   WCI  29
6HR MIN TEMP:  33; 6HR MAX TEMP:  35; 6HR PCP:  0.18;

BLAIR          LGT SNOW  33  32  97 SE7       30.13S WCI  27
FREMONT        LGT SNOW  32  32 100 SE7       30.13F WCI  26
MILLARD        LGT SNOW  33  32  95 CALM      30.15R
OFFUTT AFB     LGT SNOW  33  33 100 E6        30.14F FOG     WCI  28
PLATTSMOUTH    LGT SNOW  33  31  94 E5        30.14S WCI  28
WAHOO          LGT SNOW  32  32  99 SE7       30.13F WCI  26
$$



USA.gov is the U.S. government's official web portal to all federal, state and local government web resources and services.